• în România
  • Lista ţărilor
  • Pe 7 zile
  • Temperatura apei
  • Hartă satelitară
  • Meteo pe hartă
  • Widget-uri
  • user-avatar
    Intrare

    Meteo pe oră la Neuquén

    Astăzi, 18 Ianuarie, Miercuri

    Timp Temperatura Precipitaţii Vânt Presiune Umiditate
    00:00 +21°C° 0 mm 9 m/s 731 mmHg 29%
    01:00 +20°C° 0 mm 8 m/s 732 mmHg 32%
    02:00 +18°C° 0 mm 7 m/s 732 mmHg 34%
    03:00 +19°C° 0 mm 6 m/s 732 mmHg 36%
    04:00 +17°C° 0 mm 5 m/s 732 mmHg 38%
    05:00 +19°C° 0 mm 5 m/s 733 mmHg 35%
    06:00 +20°C° 0 mm 4 m/s 733 mmHg 32%
    07:00 +22°C° 0 mm 4 m/s 734 mmHg 28%
    08:00 +24°C° 0 mm 3 m/s 734 mmHg 25%
    09:00 +25°C° 0 mm 2 m/s 733 mmHg 22%
    10:00 +27°C° 0 mm 1 m/s 733 mmHg 19%
    11:00 +28°C° 0 mm 2 m/s 733 mmHg 17%
    12:00 +30°C° 0 mm 2 m/s 732 mmHg 16%
    13:00 +31°C° 0 mm 2 m/s 731 mmHg 14%
    14:00 +32°C° 0 mm 2 m/s 731 mmHg 13%
    15:00 +34°C° 0 mm 2 m/s 730 mmHg 12%
    16:00 +34°C° 0 mm 2 m/s 730 mmHg 11%
    17:00 +33°C° 0 mm 3 m/s 730 mmHg 12%
    18:00 +31°C° 0 mm 3 m/s 730 mmHg 13%
    19:00 +30°C° 0 mm 4 m/s 730 mmHg 14%
    20:00 +29°C° 0 mm 4 m/s 730 mmHg 15%
    21:00 +28°C° 0 mm 4 m/s 731 mmHg 15%
    22:00 +27°C° 0 mm 4 m/s 731 mmHg 16%
    23:00 +27°C° 0 mm 5 m/s 731 mmHg 17%

    Mâine, 19 Ianuarie, Joi

    Timp Temperatura Precipitaţii Vânt Presiune Umiditate
    00:00 +26°C° 0 mm 5 m/s 731 mmHg 19%
    01:00 +25°C° 0 mm 5 m/s 731 mmHg 20%
    02:00 +23°C° 0 mm 5 m/s 731 mmHg 22%
    03:00 +23°C° 0 mm 5 m/s 732 mmHg 24%
    04:00 +22°C° 0 mm 5 m/s 732 mmHg 26%
    05:00 +25°C° 0 mm 5 m/s 732 mmHg 24%
    06:00 +26°C° 0 mm 5 m/s 733 mmHg 23%
    07:00 +27°C° 0 mm 6 m/s 733 mmHg 21%
    08:00 +29°C° 0 mm 5 m/s 733 mmHg 19%
    09:00 +32°C° 0 mm 5 m/s 733 mmHg 17%
    10:00 +34°C° 0 mm 5 m/s 733 mmHg 15%
    11:00 +35°C° 0 mm 5 m/s 733 mmHg 13%
    12:00 +36°C° 0 mm 5 m/s 732 mmHg 12%
    13:00 +37°C° 0 mm 5 m/s 732 mmHg 10%
    14:00 +37°C° 0 mm 4 m/s 732 mmHg 10%
    15:00 +38°C° 0 mm 4 m/s 731 mmHg 10%
    16:00 +38°C° 0 mm 4 m/s 731 mmHg 9%
    17:00 +36°C° 0 mm 4 m/s 731 mmHg 11%
    18:00 +35°C° 0 mm 3 m/s 731 mmHg 12%
    19:00 +33°C° 0 mm 3 m/s 732 mmHg 13%
    20:00 +32°C° 0 mm 4 m/s 732 mmHg 16%
    21:00 +30°C° 0 mm 6 m/s 733 mmHg 18%
    22:00 +29°C° 0 mm 7 m/s 733 mmHg 20%
    23:00 +28°C° 0 mm 7 m/s 734 mmHg 23%

    Poimâine, 20 Ianuarie, Vineri

    Timp Temperatura Precipitaţii Vânt Presiune Umiditate
    00:00 +27°C° 0 mm 6 m/s 734 mmHg 26%
    01:00 +26°C° 0 mm 6 m/s 734 mmHg 29%
    02:00 +24°C° 0 mm 6 m/s 734 mmHg 30%
    03:00 +25°C° 0 mm 5 m/s 734 mmHg 31%
    04:00 +23°C° 0 mm 5 m/s 734 mmHg 32%
    05:00 +25°C° 0 mm 4 m/s 734 mmHg 29%
    06:00 +26°C° 0 mm 3 m/s 734 mmHg 27%
    07:00 +27°C° 0 mm 2 m/s 735 mmHg 24%
    08:00 +29°C° 0 mm 2 m/s 735 mmHg 21%
    09:00 +31°C° 0 mm 2 m/s 734 mmHg 18%
    10:00 +34°C° 0 mm 2 m/s 734 mmHg 15%
    11:00 +35°C° 0 mm 2 m/s 733 mmHg 14%
    12:00 +37°C° 0 mm 3 m/s 733 mmHg 13%
    13:00 +38°C° 0 mm 4 m/s 732 mmHg 12%
    14:00 +40°C° 0 mm 4 m/s 732 mmHg 11%
    15:00 +40°C° 0 mm 4 m/s 731 mmHg 10%
    16:00 +41°C° 0 mm 4 m/s 730 mmHg 10%
    17:00 +38°C° 0 mm 3 m/s 730 mmHg 11%
    18:00 +36°C° 0 mm 2 m/s 730 mmHg 12%
    19:00 +33°C° 0 mm 1 m/s 730 mmHg 14%
    20:00 +33°C° 0 mm 4 m/s 731 mmHg 15%
    21:00 +32°C° 0 mm 6 m/s 731 mmHg 16%
    22:00 +32°C° 0 mm 9 m/s 732 mmHg 18%
    23:00 +31°C° 0 mm 9 m/s 732 mmHg 19%

    21 Ianuarie, Sâmbătă

    Timp Temperatura Precipitaţii Vânt Presiune Umiditate
    00:00 +29°C° 0 mm 9 m/s 731 mmHg 21%
    01:00 +28°C° 0 mm 8 m/s 731 mmHg 22%
    02:00 +27°C° 0 mm 7 m/s 732 mmHg 23%
    03:00 +26°C° 0 mm 6 m/s 732 mmHg 24%
    04:00 +25°C° 0 mm 5 m/s 732 mmHg 24%
    05:00 +27°C° 0 mm 5 m/s 733 mmHg 22%
    06:00 +28°C° 0 mm 5 m/s 733 mmHg 19%
    07:00 +29°C° 0 mm 5 m/s 734 mmHg 17%
    08:00 +30°C° 0 mm 4 m/s 734 mmHg 15%
    09:00 +33°C° 0 mm 3 m/s 734 mmHg 13%
    10:00 +34°C° 0 mm 3 m/s 734 mmHg 11%
    11:00 +36°C° 0 mm 2 m/s 733 mmHg 10%
    12:00 +37°C° 0 mm 2 m/s 732 mmHg 10%
    13:00 +38°C° 0 mm 2 m/s 732 mmHg 9%
    14:00 +38°C° 0 mm 2 m/s 731 mmHg 9%
    15:00 +39°C° 0 mm 2 m/s 731 mmHg 9%
    16:00 +39°C° 0 mm 2 m/s 730 mmHg 9%
    17:00 +38°C° 0 mm 2 m/s 730 mmHg 11%
    18:00 +36°C° 0 mm 2 m/s 731 mmHg 13%
    19:00 +34°C° 0 mm 3 m/s 731 mmHg 15%
    20:00 +33°C° 0 mm 4 m/s 731 mmHg 16%
    21:00 +32°C° 0 mm 5 m/s 732 mmHg 18%
    22:00 +30°C° 0 mm 6 m/s 732 mmHg 19%
    23:00 +29°C° 0 mm 6 m/s 733 mmHg 20%

    22 Ianuarie, Duminică

    Timp Temperatura Precipitaţii Vânt Presiune Umiditate
    00:00 +28°C° 0 mm 5 m/s 733 mmHg 22%
    01:00 +27°C° 0 mm 5 m/s 733 mmHg 23%
    02:00 +26°C° 0 mm 5 m/s 733 mmHg 28%
    03:00 +25°C° 0 mm 4 m/s 733 mmHg 32%
    04:00 +23°C° 0 mm 4 m/s 733 mmHg 37%
    05:00 +25°C° 0 mm 4 m/s 734 mmHg 37%
    06:00 +25°C° 0 mm 4 m/s 734 mmHg 37%
    07:00 +26°C° 0 mm 4 m/s 735 mmHg 37%
    08:00 +28°C° 0 mm 4 m/s 735 mmHg 33%
    09:00 +29°C° 0 mm 4 m/s 734 mmHg 30%
    10:00 +32°C° 0 mm 4 m/s 734 mmHg 26%
    11:00 +33°C° 0 mm 3 m/s 734 mmHg 24%
    12:00 +35°C° 0 mm 3 m/s 733 mmHg 21%
    13:00 +36°C° 0 mm 3 m/s 733 mmHg 19%
    14:00 +36°C° 0 mm 3 m/s 733 mmHg 18%
    15:00 +37°C° 0 mm 3 m/s 732 mmHg 17%
    16:00 +37°C° 0 mm 2 m/s 732 mmHg 16%
    17:00 +36°C° 0 mm 3 m/s 732 mmHg 17%
    18:00 +35°C° 0 mm 3 m/s 732 mmHg 19%
    19:00 +34°C° 0 mm 3 m/s 732 mmHg 20%
    20:00 +33°C° 0 mm 3 m/s 732 mmHg 23%
    21:00 +31°C° 0 mm 3 m/s 732 mmHg 25%
    22:00 +30°C° 0 mm 3 m/s 732 mmHg 28%
    23:00 +29°C° 0 mm 4 m/s 732 mmHg 32%

    23 Ianuarie, Luni

    Timp Temperatura Precipitaţii Vânt Presiune Umiditate
    00:00 +28°C° 0 mm 4 m/s 732 mmHg 37%
    01:00 +27°C° 0 mm 4 m/s 732 mmHg 41%
    02:00 +26°C° 0 mm 3 m/s 732 mmHg 47%
    03:00 +26°C° 0 mm 3 m/s 732 mmHg 52%
    04:00 +25°C° 0 mm 2 m/s 732 mmHg 57%
    05:00 +26°C° 0 mm 2 m/s 732 mmHg 54%
    06:00 +27°C° 0 mm 3 m/s 733 mmHg 50%
    07:00 +29°C° 0 mm 3 m/s 733 mmHg 47%
    08:00 +31°C° 0 mm 2 m/s 733 mmHg 41%
    09:00 +34°C° 0 mm 2 m/s 732 mmHg 35%
    10:00 +35°C° 0 mm 2 m/s 732 mmHg 29%
    11:00 +37°C° 0 mm 2 m/s 732 mmHg 26%
    12:00 +38°C° 0 mm 2 m/s 731 mmHg 22%
    13:00 +39°C° 0 mm 2 m/s 731 mmHg 18%
    14:00 +40°C° 0 mm 2 m/s 731 mmHg 17%
    15:00 +40°C° 0 mm 2 m/s 730 mmHg 16%
    16:00 +40°C° 0 mm 2 m/s 730 mmHg 16%
    17:00 +39°C° 0 mm 2 m/s 730 mmHg 17%
    18:00 +38°C° 0 mm 2 m/s 730 mmHg 18%
    19:00 +37°C° 0 mm 2 m/s 730 mmHg 19%
    20:00 +36°C° 0 mm 3 m/s 730 mmHg 19%
    21:00 +35°C° 0 mm 4 m/s 730 mmHg 18%
    22:00 +34°C° 0 mm 5 m/s 731 mmHg 17%
    23:00 +33°C° 0 mm 5 m/s 731 mmHg 19%
    Arată mai mult